Location: Newark
(46.7000°N, 60.6000°W)
Time: 21:21:30
(UTC+00:00)

Vanguard 1 Rocket - Pass Details

Date: 01 November 2020
Orbit: 656 x 4221 km, 34.3° (Epoch: 30 November)

Event Time Altitude Azimuth Distance (km) Brightness Sun altitude
Rises 14:26:18 0° 240° (WSW) 3,622 10.6 26.0°
Reaches altitude 10° 14:29:52 10° 223° (SW) 2,343 10.0 26.3°
Maximum altitude 14:33:22 19° 178° (S) 1,626 10.5 26.5°
Drops below altitude 10° 14:36:29 10° 133° (SE) 2,055 10.4 26.6°
Sets 14:39:20 0° 113° (ESE) 3,013 10.7 26.8°
